| time (UTC) | temp F | wind direction | speed MPH | gust MPH | rain 1hr in | rain 24hr in | rain mn in | humidity % | barometer mb |
| 20260905211510 | 82 | 86 | 1.0 | 8.0 | 0.00 | 0.03 | 0.03 | 80 | 1013.7 |
| 20260905210009 | 81 | 327 | 2.0 | 6.0 | 0.00 | 0.03 | 0.03 | 79 | 1013.5 |
| 20260905204508 | 82 | 89 | 1.0 | 6.0 | 0.00 | 0.03 | 0.03 | 80 | 1013.8 |
| 20260905203009 | 81 | 355 | 1.0 | 6.0 | 0.00 | 0.03 | 0.03 | 81 | 1014.1 |
| 20260905201508 | 81 | 92 | 0.0 | 8.0 | 0.00 | 0.03 | 0.03 | 82 | 1013.9 |
| 20260905200008 | 81 | 5 | 1.0 | 8.0 | 0.00 | 0.03 | 0.03 | 81 | 1014.0 |
| 20260905194508 | 83 | 88 | 2.0 | 5.0 | 0.00 | 0.03 | 0.03 | 78 | 1014.0 |
| 20260905193006 | 83 | 26 | 1.0 | 8.0 | 0.00 | 0.03 | 0.03 | 78 | 1013.8 |
| 20260905191505 | 84 | 75 | 1.0 | 8.0 | 0.00 | 0.03 | 0.03 | 79 | 1013.8 |
| 20260905190004 | 85 | 59 | 1.0 | 6.0 | 0.00 | 0.03 | 0.03 | 78 | 1013.9 |
| 20260905184505 | 84 | 98 | 1.0 | 6.0 | 0.00 | 0.03 | 0.03 | 78 | 1013.9 |
| 20260905183003 | 85 | 92 | 2.0 | 10.0 | 0.00 | 0.03 | 0.03 | 78 | 1013.9 |
| 20260905181501 | 85 | 78 | 1.0 | 6.0 | 0.00 | 0.03 | 0.03 | 79 | 1014.0 |
| 20260905180001 | 84 | 343 | 0.0 | 4.0 | 0.00 | 0.03 | 0.03 | 78 | 1013.9 |
| 20260905174605 | 84 | 103 | 1.0 | 4.0 | 0.00 | 0.03 | 0.03 | 79 | 1013.8 |
| 20260905173102 | 85 | 340 | 2.0 | 6.0 | 0.00 | 0.03 | 0.03 | 77 | 1013.9 |
| 20260905171559 | 86 | 69 | 0.0 | 4.0 | 0.00 | 0.03 | 0.03 | 78 | 1013.9 |
| 20260905170055 | 84 | 84 | 0.0 | 9.0 | 0.00 | 0.03 | 0.03 | 80 | 1014.0 |
| 20260905164554 | 84 | 355 | 2.0 | 6.0 | 0.00 | 0.03 | 0.03 | 81 | 1014.2 |
| 20260905163055 | 84 | 259 | 1.0 | 7.0 | 0.00 | 0.03 | 0.03 | 81 | 1014.2 |
| 20260905161559 | 82 | 10 | 1.0 | 4.0 | 0.00 | 0.03 | 0.03 | 82 | 1014.3 |
| 20260905160046 | 82 | 351 | 4.0 | 9.0 | 0.00 | 0.03 | 0.03 | 83 | 1014.2 |
| 20260905154543 | 82 | 330 | 2.0 | 6.0 | 0.01 | 0.03 | 0.03 | 83 | 1013.9 |
| 20260905153039 | 81 | 355 | 0.0 | 5.0 | 0.01 | 0.03 | 0.03 | 87 | 1013.9 |
| 20260905151534 | 80 | 336 | 1.0 | 5.0 | 0.01 | 0.03 | 0.03 | 87 | 1013.9 |
| 20260905150031 | 79 | 264 | 0.0 | 4.0 | 0.01 | 0.03 | 0.03 | 90 | 1013.9 |
| 20260905144529 | 77 | 88 | 0.0 | 4.0 | 0.00 | 0.02 | 0.02 | 93 | 1013.7 |
| 20260905143027 | 76 | 319 | 0.0 | 4.0 | 0.00 | 0.02 | 0.02 | 94 | 1013.6 |
| 20260905141532 | 76 | 306 | 0.0 | 4.0 | 0.00 | 0.02 | 0.02 | 94 | 1013.7 |
| 20260905140025 | 77 | 298 | 0.0 | 3.0 | 0.00 | 0.02 | 0.02 | 93 | 1013.4 |
| 20260905134524 | 78 | 103 | 0.0 | 6.0 | 0.00 | 0.02 | 0.02 | 94 | 1013.3 |
| 20260905133020 | 77 | 76 | 1.0 | 4.0 | 0.00 | 0.02 | 0.02 | 97 | 1013.2 |
| 20260905131517 | 76 | 336 | 0.0 | 4.0 | 0.00 | 0.02 | 0.02 | 99 | 1013.6 |
| 20260905130013 | 75 | 33 | 0.0 | 2.0 | 0.00 | 0.02 | 0.02 | 100 | 1012.9 |
| 20260905124510 | 75 | 101 | 0.0 | 1.0 | 0.00 | 0.02 | 0.02 | 100 | 1013.0 |
| 20260905123016 | 75 | 101 | 0.0 | 1.0 | 0.00 | 0.02 | 0.02 | 100 | 1012.6 |
| 20260905121505 | 75 | 100 | 0.0 | 0.0 | 0.00 | 0.02 | 0.02 | 100 | 1012.6 |
| 20260905120002 | 75 | 100 | 0.0 | 0.0 | 0.00 | 0.02 | 0.02 | 100 | 1012.5 |
| 20260905114601 | 74 | 100 | 0.0 | 0.0 | 0.00 | 0.02 | 0.02 | 100 | 1012.2 |
| 20260905113058 | 74 | 100 | 0.0 | 0.0 | 0.00 | 0.02 | 0.02 | 99 | 1012.1 |
| 20260905111607 | 75 | 100 | 0.0 | 0.0 | 0.00 | 0.02 | 0.02 | 99 | 1011.9 |
| 20260905110059 | 75 | 100 | 0.0 | 0.0 | 0.00 | 0.02 | 0.02 | 99 | 1011.6 |
| 20260905104612 | 75 | 100 | 0.0 | 0.0 | 0.00 | 0.02 | 0.02 | 99 | 1011.7 |
| 20260905103055 | 75 | 100 | 0.0 | 0.0 | 0.00 | 0.02 | 0.02 | 99 | 1011.9 |
| 20260905101559 | 75 | 100 | 0.0 | 0.0 | 0.00 | 0.02 | 0.02 | 99 | 1011.8 |
| 20260905100058 | 75 | 100 | 0.0 | 0.0 | 0.02 | 0.02 | 0.02 | 99 | 1011.8 |
| 20260905094552 | 76 | 100 | 0.0 | 0.0 | 0.02 | 0.02 | 0.02 | 98 | 1011.8 |
| 20260905093051 | 76 | 100 | 0.0 | 0.0 | 0.02 | 0.02 | 0.02 | 98 | 1011.8 |
| 20260905091607 | 76 | 100 | 0.0 | 1.0 | 0.02 | 0.02 | 0.02 | 98 | 1011.8 |
| 20260905090051 | 76 | 100 | 0.0 | 0.0 | 0.00 | 0.00 | 0.00 | 98 | 1011.7 |
| 20260905084607 | 76 | 100 | 0.0 | 0.0 | 0.00 | 0.00 | 0.00 | 98 | 1011.9 |
| 20260905083047 | 76 | 100 | 0.0 | 0.0 | 0.00 | 0.00 | 0.00 | 97 | 1011.8 |
| 20260905081546 | 76 | 100 | 0.0 | 0.0 | 0.00 | 0.00 | 0.00 | 97 | 1011.9 |
| 20260905080044 | 77 | 101 | 0.0 | 0.0 | 0.00 | 0.00 | 0.00 | 97 | 1011.8 |
| 20260905074547 | 77 | 100 | 0.0 | 1.0 | 0.00 | 0.00 | 0.00 | 97 | 1011.9 |
| 20260905073042 | 77 | 101 | 0.0 | 2.0 | 0.00 | 0.00 | 0.00 | 96 | 1011.9 |
| 20260905071545 | 77 | 100 | 0.0 | 3.0 | 0.00 | 0.00 | 0.00 | 96 | 1011.8 |
| 20260905064538 | 78 | 132 | 0.0 | 1.0 | 0.00 | 0.00 | 0.00 | 96 | 1011.9 |
| 20260905063037 | 78 | 133 | 0.0 | 0.0 | 0.00 | 0.00 | 0.00 | 95 | 1012.0 |
| 20260905061536 | 78 | 132 | 0.0 | 0.0 | 0.00 | 0.00 | 0.00 | 95 | 1012.1 |
| 20260905060034 | 79 | 132 | 0.0 | 0.0 | 0.00 | 0.00 | 0.00 | 94 | 1012.2 |
| 20260905054545 | 79 | 133 | 0.0 | 0.0 | 0.00 | 0.00 | 0.00 | 94 | 1012.0 |
| 20260905053040 | 79 | 132 | 0.0 | 0.0 | 0.00 | 0.00 | 0.00 | 93 | 1012.1 |
| 20260905051538 | 79 | 133 | 0.0 | 0.0 | 0.00 | 0.00 | 0.00 | 93 | 1011.9 |
| 20260905050026 | 80 | 132 | 0.0 | 0.0 | 0.00 | 0.00 | 0.00 | 93 | 1012.0 |
| 20260905044526 | 80 | 132 | 0.0 | 0.0 | 0.00 | 0.00 | 0.00 | 93 | 1011.9 |
| 20260905043028 | 80 | 132 | 0.0 | 0.0 | 0.00 | 0.00 | 0.00 | 92 | 1011.9 |
| 20260905041525 | 80 | 132 | 0.0 | 0.0 | 0.00 | 0.00 | 0.00 | 92 | 1011.9 |
| 20260905040024 | 80 | 132 | 0.0 | 0.0 | 0.00 | 0.00 | 0.00 | 92 | 1012.1 |
| 20260905034532 | 80 | 132 | 0.0 | 0.0 | 0.00 | 0.00 | 0.00 | 92 | 1012.2 |
| 20260905033026 | 80 | 132 | 0.0 | 0.0 | 0.00 | 0.00 | 0.00 | 92 | 1012.6 |
| 20260905031524 | 81 | 132 | 0.0 | 0.0 | 0.00 | 0.00 | 0.00 | 91 | 1012.7 |
| 20260905030029 | 81 | 132 | 0.0 | 0.0 | 0.00 | 0.00 | 0.00 | 91 | 1012.8 |
| 20260905024523 | 81 | 132 | 0.0 | 0.0 | 0.00 | 0.00 | 0.00 | 90 | 1012.6 |
| 20260905023029 | 82 | 132 | 0.0 | 0.0 | 0.00 | 0.00 | 0.00 | 89 | 1012.5 |
| 20260905021522 | 82 | 133 | 0.0 | 0.0 | 0.00 | 0.00 | 0.00 | 89 | 1012.5 |
| 20260905020025 | 82 | 132 | 0.0 | 0.0 | 0.00 | 0.00 | 0.00 | 88 | 1012.2 |
| 20260905014520 | 83 | 132 | 0.0 | 0.0 | 0.00 | 0.00 | 0.00 | 87 | 1012.0 |
| 20260905013023 | 83 | 132 | 0.0 | 0.0 | 0.00 | 0.00 | 0.00 | 86 | 1011.8 |
| 20260905011520 | 84 | 132 | 0.0 | 0.0 | 0.00 | 0.00 | 0.00 | 84 | 1011.8 |
| 20260905010018 | 85 | 132 | 0.0 | 0.0 | 0.00 | 0.00 | 0.00 | 82 | 1011.4 |
| 20260905004518 | 86 | 132 | 0.0 | 0.0 | 0.00 | 0.00 | 0.00 | 81 | 1011.3 |
| 20260905003018 | 87 | 132 | 0.0 | 0.0 | 0.00 | 0.00 | 0.00 | 79 | 1011.3 |
| 20260905001518 | 87 | 133 | 0.0 | 2.0 | 0.00 | 0.00 | 0.00 | 78 | 1011.1 |
| 20260905000014 | 88 | 132 | 0.0 | 0.0 | 0.00 | 0.00 | 0.00 | 77 | 1011.4 |
| 20260904234523 | 89 | 132 | 0.0 | 2.0 | 0.00 | 0.00 | 0.00 | 76 | 1011.2 |
| 20260904233014 | 89 | 132 | 0.0 | 0.0 | 0.00 | 0.00 | 0.00 | 75 | 1011.3 |
| 20260904231514 | 89 | 132 | 0.0 | 2.0 | 0.00 | 0.00 | 0.00 | 74 | 1011.4 |
| 20260904230015 | 90 | 136 | 0.0 | 2.0 | 0.00 | 0.00 | 0.00 | 74 | 1011.6 |
| 20260904224513 | 90 | 129 | 1.0 | 3.0 | 0.00 | 0.00 | 0.00 | 73 | 1011.6 |
| 20260904223012 | 91 | 238 | 0.0 | 4.0 | 0.00 | 0.00 | 0.00 | 74 | 1011.5 |
| 20260904221511 | 91 | 153 | 0.0 | 6.0 | 0.00 | 0.00 | 0.00 | 73 | 1011.3 |
| 20260904220011 | 91 | 107 | 0.0 | 2.0 | 0.00 | 0.00 | 0.00 | 73 | 1011.6 |
| 20260904214510 | 90 | 107 | 0.0 | 4.0 | 0.00 | 0.00 | 0.00 | 73 | 1011.3 |
| 20260904213009 | 91 | 150 | 0.0 | 7.0 | 0.00 | 0.00 | 0.00 | 72 | 1011.2 |